Location: Newark
(25.4297°S, 49.2719°W)
Time: 05:06:05
(UTC+00:00)

Vanguard 1 Rocket - Pass Details

Date: 29 November 2019
Orbit: 650 x 4226 km, 34.3° (Epoch: 07 December)

Event Time Altitude Azimuth Distance (km) Brightness Sun altitude
Rises 14:00:45 0° 303° (WNW) 4,826 11.0 74.7°
Reaches altitude 10° 14:03:16 10° 303° (WNW) 4,167 10.8 75.2°
Maximum altitude 14:15:35 83° 30° (NNE) 2,853 12.5 77.9°
Drops below altitude 10° 14:39:12 10° 114° (ESE) 7,279 12.2 82.8°
Sets 14:45:24 0° 114° (ESE) 8,460 12.4 84.0°
